RH
86 83 78 80 84 86 73 72 62 60 66 67 62 66 66 62 60 60 61 79 86 83 80 72 61 63 70 89 73 40 31 31 29 19 15 15 14 15
90 88 85 89 94 93 89 87 75 71 65 66 69 54 43 44 54 64 64 77 100 95 87 78 85 81 92 67 71 35 34 32 22 19 18 17 16 18
92 97 99 100 92 71 62 48 40 33 30 27 22 22 22 29 46 67 72 92 98 95 93 82 83 92 90 93 49 35 35 25 24 22 22 20 20 24
90 78 69 61 48 19 12 10 11 11 12 14 17 17 20 26 37 53 80 96 90 94 95 99 98 99 93 95 38 35 32 28 27 28 28 26 28 30
44 34 24 12 10 10 11 16 21 20 23 26 28 38 46 58 65 75 91 100 100 98 100 99 100 97 100 73 41 33 30 32 35 36 36 35 36 41
14 12 11 11 12 21 24 27 31 37 40 43 46 53 68 83 92 99 100 100 100 100 97 100 100 100 89 54 59 36 37 44 44 45 46 43 44 44
14 13 14 18 25 28 38 40 44 45 44 47 53 65 75 81 85 92 97 100 100 100 100 100 100 96 61 92 61 54 60 54 50 48 44 41 40 39
22 24 29 33 39 43 43 44 47 48 50 58 71 84 91 100 95 93 97 99 100 90 100 100 100 97 97 99 91 93 75 60 56 54 45 41 41 34
31 33 35 36 39 44 48 47 52 56 68 80 85 94 93 88 97 98 96 97 100 100 100 100 100 100 100 100 100 100 89 66 58 58 52 42 38 33
45 49 43 44 48 49 50 52 60 66 71 82 87 88 84 95 97 97 94 100 100 100 100 100 100 100 100 100 100 96 76 69 63 57 57 45 38 36
53 52 49 53 57 57 53 65 66 72 73 79 87 89 87 91 90 89 99 96 100 100 100 100 100 100 99 99 96 88 81 75 69 61 60 51 48 48
60 59 58 55 56 55 59 67 74 72 74 76 81 81 81 90 96 98 100 100 100 100 100 100 100 100 100 100 100 93 81 79 74 71 67 62 61 62
65 62 57 59 66 65 66 72 72 79 75 72 84 82 81 78 90 99 100 99 100 100 100 100 99 98 99 100 100 100 99 93 91 92 88 83 88 90
53 55 58 68 76 80 89 86 88 88 80 74 76 81 88 94 100 100 100 100 100 97 100 100 97 92 92 91 96 98 100 100 100 99 98 97 97 99
59 62 68 76 84 84 91 92 90 94 86 83 88 92 96 100 100 100 96 97 98 99 100 100 100 100 99 94 97 98 100 100 99 100 100 100 100 100
60 69 72 77 89 75 74 92 100 98 97 95 97 100 100 99 93 94 94 95 96 99 100 100 100 99 96 91 95 99 100 100 100 100 100 100 100 100
65 73 78 82 87 78 83 100 100 100 100 100 100 96 95 95 100 100 100 100 100 100 100 96 84 82 82 88 90 90 99 97 100 100 100 100 100 100
69 80 83 93 94 92 100 100 100 100 99 100 99 95 92 92 93 89 89 95 93 96 99 93 86 87 89 87 84 82 88 91 95 100 100 100 98 98
83 87 95 92 96 97 100 100 100 100 100 100 100 100 98 98 100 99 96 98 97 92 95 100 100 97 97 97 93 95 86 75 77 88 96 100 100 95
77 91 99 100 100 100 100 97 98 100 100 100 99 84 78 80 86 93 92 90 98 97 95 92 94 100 100 100 100 100 96 96 96 94 95 100 100 100
95 98 100 100 100 97 99 100 100 100 100 99 96 90 89 90 93 94 90 89 92 92 87 81 78 73 64 60 58 53 50 57 55 58 56 47 59 96
100 100 100 100 100 100 100 100 100 100 100 100 98 98 92 70 54 40 42 42 40 37 31 27 29 34 41 43 47 53 56 58 63 59 48 49 67 92
90 89 100 100 100 100 100 100 100 100 100 99 96 52 36 50 52 48 39 37 35 34 29 26 26 27 30 36 49 60 62 66 77 82 86 80 81 95
Wind_Speed
50 49 44 45 46 48 47 47 48 49 48 49 51 50 50 51 49 47 47 47 46 45 41 37 33 34 30 29 23 23 21 21 19 17 16 15 15 16
50 47 48 49 50 50 51 50 50 53 55 56 56 56 56 56 55 52 50 49 48 41 37 34 33 33 30 22 23 22 21 21 19 17 16 17 15 16
50 48 47 47 50 49 51 51 53 54 55 54 52 52 51 50 49 47 47 45 43 45 35 31 31 30 25 24 24 22 22 21 19 18 17 18 16 16
48 49 50 53 52 47 46 48 49 51 52 51 49 48 47 46 44 44 41 39 41 40 31 32 32 27 27 24 25 23 23 22 21 20 18 18 17 16
46 46 44 42 43 46 49 49 49 48 47 46 45 44 42 41 38 38 37 37 39 34 34 35 30 32 27 22 23 24 23 23 22 22 20 19 19 18
39 41 43 45 47 47 46 45 45 44 43 42 42 41 39 39 39 36 33 32 34 35 36 32 29 26 21 23 22 24 23 24 24 23 22 21 22 21
42 43 44 44 42 41 41 41 40 40 41 39 38 38 35 34 32 30 31 30 30 29 29 29 27 22 23 23 22 24 24 25 25 25 24 23 23 22
40 40 42 42 41 40 38 37 39 39 39 35 34 34 35 34 29 27 28 32 30 31 31 31 28 23 24 25 24 24 26 26 26 27 26 24 24 23
40 40 40 39 38 37 36 38 39 36 34 30 29 28 28 29 27 27 31 33 32 34 28 27 28 28 28 25 26 26 28 28 28 29 28 26 24 23
40 40 40 39 37 37 37 38 36 32 30 29 28 28 27 24 24 24 25 30 34 30 30 33 29 24 24 24 24 26 29 29 29 30 29 28 26 25
41 40 39 38 37 37 36 33 30 29 29 29 28 26 26 26 24 24 25 23 22 22 22 20 23 23 21 21 22 24 25 27 28 29 29 30 29 29
40 40 39 39 37 37 35 33 31 30 27 25 24 23 24 24 22 21 17 19 18 17 20 23 23 22 23 22 22 24 26 26 28 29 31 32 31 31
41 41 40 38 36 35 33 33 31 26 25 24 23 24 23 20 18 16 17 18 17 19 20 21 21 22 23 25 27 28 29 30 31 32 34 34 35 34
41 39 39 36 34 31 29 28 27 25 24 24 21 20 19 17 17 17 18 20 22 22 23 24 25 27 26 25 26 28 30 32 34 35 37 38 38 35
38 38 36 34 33 32 31 27 26 24 23 21 20 19 19 19 19 21 22 23 25 24 25 26 28 29 27 26 27 28 29 30 31 34 37 39 37 34
37 35 34 33 35 33 33 30 26 23 23 20 20 21 22 22 22 23 24 25 26 28 29 30 29 28 27 28 28 27 28 29 30 34 37 37 35 35
36 33 33 34 34 33 32 28 27 25 24 22 22 23 23 22 21 22 22 22 23 23 24 25 27 29 29 28 28 28 28 30 30 32 34 36 37 38
34 34 35 33 33 34 30 27 27 26 24 22 23 24 23 22 23 26 28 28 28 27 28 30 30 28 27 28 30 32 33 34 36 38 39 40 42 41
33 34 32 30 32 35 32 25 28 28 29 28 27 27 28 28 27 28 28 28 30 29 30 32 33 34 35 36 38 38 40 41 43 44 44 44 46 48
35 33 31 25 27 31 32 32 28 27 27 28 28 29 29 31 32 34 35 35 35 37 36 37 38 39 41 42 44 44 46 46 48 49 50 51 52 53
35 34 34 35 32 29 26 30 30 29 31 32 32 33 34 33 33 34 35 35 35 37 39 40 42 43 44 44 44 45 44 44 46 48 48 48 52 55
37 36 35 34 35 33 32 33 34 35 35 34 35 36 36 36 35 34 33 33 33 32 34 34 35 36 39 41 43 44 45 45 45 45 45 45 43 46
39 39 38 36 35 36 36 35 35 35 35 36 36 34 32 32 33 32 31 29 29 29 32 34 35 37 37 38 39 41 44 45 46 47 48 48 47 45
Wind_Direction
287 285 288 285 286 284 286 286 287 287 284 286 286 287 287 287 286 285 283 279 276 276 278 279 277 276 275 274 272 271 261 261 256 258 256 252 240 241
281 282 286 289 284 285 288 288 288 285 283 284 285 286 286 284 282 282 280 279 279 275 273 271 270 275 277 264 269 260 261 257 251 251 250 251 242 239
283 284 286 283 287 287 286 285 283 283 284 285 285 286 285 285 284 284 284 281 278 276 271 265 265 268 256 263 259 252 255 251 249 245 245 246 238 234
280 282 284 285 285 284 285 286 287 288 289 288 289 289 287 286 285 282 281 280 280 276 262 264 265 263 250 256 253 250 249 246 243 241 239 240 235 234
282 283 282 281 284 286 287 289 291 291 291 290 290 288 286 284 281 279 275 274 277 273 255 268 257 255 252 249 251 250 246 243 243 240 236 235 236 236
280 280 282 284 286 291 292 291 293 293 292 291 289 287 290 289 288 282 276 269 266 264 270 266 257 255 242 247 249 248 243 245 242 238 234 236 239 238
282 284 287 289 290 290 293 294 294 292 292 288 288 286 286 286 286 281 279 268 268 264 259 256 260 245 246 243 244 242 243 244 244 242 239 239 241 240
282 284 287 288 290 293 294 294 296 296 294 288 285 284 285 282 274 279 276 272 265 267 256 253 252 241 243 244 241 242 246 250 247 244 241 241 239 240
282 284 287 290 290 291 293 294 296 296 294 285 283 282 286 285 272 274 276 288 260 268 263 253 244 233 242 240 243 248 252 252 246 241 242 240 239 242
282 285 288 290 290 291 294 294 295 292 291 285 283 282 285 278 278 277 281 283 280 269 268 258 254 246 244 248 255 256 255 250 245 241 241 240 240 239
283 285 286 288 288 290 293 294 291 295 294 289 284 283 282 282 283 283 280 281 275 269 261 250 249 249 249 252 255 256 253 249 245 243 244 241 241 243
282 283 285 287 288 290 290 286 292 287 287 285 285 281 280 280 284 285 280 264 257 253 255 253 255 256 255 254 255 255 251 248 248 247 246 246 247 248
280 281 281 282 284 287 289 286 287 284 283 283 282 280 279 276 281 280 269 258 257 265 253 251 256 262 267 268 260 256 253 251 250 250 250 250 249 251
277 278 278 278 279 284 284 285 280 280 279 280 280 281 282 281 273 263 258 257 257 258 255 261 262 260 263 271 265 265 261 262 258 254 252 253 252 253
276 277 277 275 275 277 278 282 281 278 275 274 276 275 273 271 267 262 260 261 264 265 266 266 265 266 266 271 268 269 265 259 258 260 261 257 256 259
275 276 275 271 274 274 271 275 275 273 273 272 270 269 269 270 271 271 270 270 270 270 271 270 268 268 271 274 272 269 268 267 267 264 261 261 263 264
271 273 272 274 273 269 269 267 266 265 264 264 266 269 271 272 272 272 272 273 272 273 271 272 275 276 277 274 273 273 271 272 271 271 272 271 270 271
271 269 271 271 267 267 265 260 259 261 260 260 263 268 272 273 273 273 272 272 274 274 273 273 273 272 275 275 274 274 274 274 273 272 271 272 273 272
267 269 264 268 271 264 271 263 257 254 259 261 265 269 272 274 275 273 273 276 275 275 277 274 273 273 275 275 274 274 274 276 275 274 272 271 271 273
261 266 258 270 268 266 261 264 264 258 258 263 266 270 276 277 275 273 275 277 276 277 277 276 275 276 277 279 278 277 276 274 273 273 273 273 273 272
259 260 262 259 269 271 267 254 255 256 260 262 267 272 274 274 275 276 277 278 278 278 278 278 278 279 279 278 278 278 278 277 276 275 274 276 277 274
257 255 257 262 264 267 264 261 261 264 266 268 271 273 274 276 276 275 277 279 279 279 281 282 282 282 281 280 278 277 276 280 281 278 277 279 281 278
254 255 256 258 260 260 261 262 263 264 267 271 273 272 271 271 274 275 275 276 279 281 283 285 285 284 284 284 283 282 280 281 281 279 278 278 277 275